Location: Cheraw
(34.6968°N, 79.8912°W)
Time: 22:07:01
(UTC+00:00)

N. Korean satellite - Pass Details

Date: 17 August 2022
Orbit: 428 x 468 km, 97.3° (Epoch: 24 September)

Event Time Altitude Azimuth Distance (km) Brightness Sun altitude
Rises 09:34:19 0° 34° (NE) 2,531 11.3 -13.6°
Reaches altitude 10° 09:37:11 10° 60° (ENE) 1,643 10.7 -13.1°
Maximum altitude 09:39:09 14° 94° (E) 1,398 9.8 -12.8°
Drops below altitude 10° 09:41:05 10° 127° (SE) 1,628 9.6 -12.4°
Sets 09:43:53 0° 154° (SSE) 2,490 10.2 -11.9°
